RH
48 45 36 33 34 35 34 38 54 48 59 67 66 68 66 65 68 66 65 65 63 62 56 53 52 49 46 47 40 40 39 41 38 41 41 53 57 58 61 64 59 58 50 44
44 63 60 41 42 47 44 34 41 60 73 59 61 66 71 71 70 73 70 66 65 61 58 51 48 52 54 37 34 32 39 41 48 46 47 49 58 62 70 65 83 51 44 44
54 83 65 68 49 38 39 46 44 53 65 67 73 75 79 80 76 76 74 71 69 64 58 56 56 40 30 30 29 28 32 45 47 49 52 61 64 69 92 100 80 44 48 55
74 72 38 42 44 41 67 69 70 75 77 74 73 80 83 77 77 77 76 70 68 62 57 33 30 28 28 27 28 33 48 61 63 63 62 69 81 98 90 87 77 56 58 67
73 88 50 44 44 48 46 68 73 81 80 78 71 82 87 73 72 71 69 65 61 41 26 28 27 27 29 31 35 45 54 55 50 63 67 76 96 98 80 88 69 62 70 69
99 64 59 47 44 38 42 74 78 81 86 81 74 83 81 74 70 64 58 55 31 26 28 28 29 29 31 34 38 50 52 50 54 72 82 92 94 90 80 61 59 67 68 63
99 92 78 55 50 41 71 64 83 82 83 80 79 78 73 70 65 55 34 28 29 30 31 32 34 36 38 38 45 53 54 56 65 81 90 98 98 69 59 64 66 67 64 67
94 93 82 54 53 58 63 85 85 86 81 81 78 72 65 66 44 32 30 32 33 35 37 38 41 46 47 46 49 56 61 65 74 80 78 89 74 76 85 70 68 69 74 79
75 77 56 60 53 74 80 85 80 79 78 76 72 66 47 40 34 32 34 37 39 41 43 46 51 54 56 58 58 70 76 80 84 89 87 83 67 62 65 69 74 79 83 82
73 57 69 84 81 77 77 79 77 74 74 72 60 45 40 37 36 38 41 43 44 46 51 57 60 65 68 70 72 79 88 87 76 78 90 86 89 83 70 75 76 76 82 85
73 92 88 83 82 84 84 79 72 66 63 55 41 40 37 39 41 46 47 48 48 53 61 64 68 66 74 84 92 99 100 97 80 80 100 96 84 77 79 78 76 78 83 86
84 67 74 83 89 85 85 77 65 61 50 37 35 40 38 45 48 52 53 50 56 61 67 70 68 76 81 91 99 97 100 98 89 91 96 91 84 87 79 74 78 78 84 88
73 88 89 92 89 83 74 65 59 40 38 42 38 42 47 51 53 56 49 55 64 68 72 72 76 89 98 100 99 93 96 99 94 94 85 71 74 75 82 69 80 72 80 82
85 85 94 89 91 76 63 47 34 35 36 39 46 51 52 57 58 56 59 66 70 77 81 81 91 91 96 98 100 98 94 98 95 88 75 77 76 81 85 93 93 78 79 86
83 74 77 79 74 68 52 35 45 47 48 53 52 54 58 66 66 66 72 75 83 90 95 99 97 90 95 100 98 92 94 92 95 92 76 81 78 78 86 92 82 80 72 87
81 72 72 68 57 43 43 46 51 54 55 56 57 57 64 68 71 80 86 93 95 95 97 94 89 86 86 87 90 82 83 85 88 81 79 70 80 85 93 92 82 68 81 92
73 65 51 51 49 49 54 56 57 57 59 60 62 65 67 77 87 92 88 83 84 85 87 87 83 85 96 86 87 79 77 78 79 74 73 81 80 78 88 85 74 87 89 94
45 44 45 48 53 59 63 61 58 58 63 64 63 71 78 90 93 83 78 80 81 86 95 85 87 100 98 86 85 83 77 78 78 78 79 78 78 80 76 79 90 96 91 92
49 50 50 51 48 48 49 50 54 56 57 62 73 75 79 88 87 77 78 78 79 81 84 92 93 94 99 89 83 82 79 74 72 72 73 73 79 80 85 88 87 90 95 97
49 44 41 42 42 44 48 51 55 61 62 72 76 85 90 88 87 74 72 79 79 83 82 94 93 89 91 89 82 83 95 89 82 76 77 79 75 73 73 80 90 92 92 91
54 52 50 49 48 49 51 53 62 69 64 74 85 89 92 93 83 69 83 80 79 78 90 96 96 99 100 89 87 86 81 85 88 91 86 89 86 80 85 89 83 90 93 98
51 52 52 54 56 57 55 58 64 67 72 74 74 87 99 90 84 91 90 89 83 89 94 99 91 85 99 100 97 98 99 96 93 97 80 82 88 85 86 83 91 88 86 97
53 55 58 59 60 62 61 62 63 66 71 73 81 94 96 94 93 100 94 92 97 96 100 97 92 88 97 99 99 98 95 95 97 97 92 84 86 88 89 83 91 85 85 93
62 60 60 57 60 65 75 60 63 67 71 73 78 89 92 85 78 81 84 81 83 82 90 93 99 100 100 100 99 99 100 100 99 96 94 93 92 88 92 85 88 81 88 91
56 58 60 63 69 71 66 63 70 72 76 82 83 81 82 74 73 70 76 88 89 95 100 100 100 99 99 100 100 99 98 97 97 98 97 97 96 95 92 85 83 80 84 96
65 68 67 67 68 66 67 71 78 75 78 82 82 84 82 71 72 79 97 90 96 96 94 98 98 95 100 100 100 100 100 99 99 98 98 97 97 97 97 95 94 86 92 95
66 68 72 76 72 71 73 77 86 82 77 84 90 81 79 78 92 98 100 96 86 88 95 96 93 92 95 95 99 100 100 100 100 100 98 97 97 97 97 97 95 95 96 96
Wind_Speed
2 3 2 1 1 4 2 5 5 5 5 3 5 7 6 6 6 5 5 6 6 5 10 11 11 12 14 15 19 21 21 19 18 23 19 17 19 14 14 14 9 9 7 4
2 6 6 3 5 4 4 2 4 8 5 3 5 6 6 6 5 5 5 5 5 7 10 14 18 21 21 20 20 20 20 24 25 25 20 15 16 19 15 11 15 8 3 8
3 4 5 5 5 3 3 2 3 4 4 4 4 5 4 4 2 1 3 5 5 8 13 19 19 16 17 17 18 19 18 14 17 19 13 8 12 13 19 18 14 4 8 5
2 3 1 5 5 4 9 3 7 9 7 5 5 5 5 3 2 2 4 4 8 14 19 17 13 14 15 18 20 17 14 13 14 13 15 15 15 9 6 4 9 13 6 1
3 2 5 2 4 5 5 5 6 8 7 4 4 4 2 1 2 2 4 9 14 11 9 7 11 15 18 22 13 10 13 15 19 17 20 19 12 10 16 14 12 6 3 3
3 4 6 5 3 4 5 5 7 7 7 5 4 1 3 3 4 7 11 9 6 8 8 15 21 23 22 14 12 10 12 17 20 17 17 15 12 13 13 6 3 4 3 6
2 2 7 7 5 2 5 7 7 7 6 6 5 5 4 3 5 6 7 10 11 14 17 19 22 22 21 18 8 9 13 17 16 14 11 11 10 6 3 2 4 2 6 6
2 2 8 6 4 7 5 4 6 6 5 5 4 4 3 3 2 7 10 11 14 16 18 19 19 23 23 22 12 12 13 14 12 12 14 9 3 6 4 6 1 4 5 7
9 6 5 5 4 2 5 6 5 6 5 6 5 4 1 4 5 7 8 12 15 17 18 19 20 20 22 23 20 10 8 9 13 13 12 9 1 3 3 1 3 6 6 9
3 4 5 4 3 4 4 5 5 4 5 6 4 3 5 3 4 7 9 11 16 16 16 19 19 20 21 25 14 9 10 11 14 13 10 4 4 1 3 3 7 8 9 10
2 3 4 2 2 6 5 6 5 5 5 4 6 5 4 3 4 5 8 14 16 15 17 16 21 24 21 19 20 18 17 13 10 8 3 4 3 3 4 5 8 10 10 11
6 6 4 4 8 6 6 5 6 5 4 7 9 6 6 4 3 6 13 17 17 18 18 19 23 22 22 19 19 19 17 10 6 5 4 5 7 5 6 8 7 10 9 12
4 3 2 7 7 6 5 7 8 7 12 6 8 8 5 2 5 10 17 17 17 20 18 24 24 23 20 18 18 17 16 6 5 5 6 9 8 9 10 9 8 11 10 10
9 9 5 3 5 8 5 7 14 15 13 11 8 5 4 4 8 14 17 19 20 20 21 22 21 19 19 20 15 11 7 7 6 5 8 10 9 9 10 11 10 13 11 9
5 2 5 9 10 8 8 12 7 6 7 6 4 5 5 6 12 16 18 20 20 21 19 18 18 20 18 13 9 9 8 9 11 2 7 10 11 11 11 7 10 12 13 10
6 7 9 8 7 8 7 6 6 4 3 2 5 8 7 11 14 16 17 18 18 18 19 20 20 18 14 12 9 8 9 8 5 8 11 11 11 11 11 10 10 12 13 12
12 8 8 8 7 5 6 6 6 3 1 4 6 8 13 11 13 15 18 17 18 22 20 21 21 16 15 9 8 8 10 12 10 11 11 11 11 13 11 10 13 15 14 13
13 13 13 7 5 5 4 4 2 3 4 6 11 11 11 8 10 16 20 21 22 20 20 16 16 15 10 8 9 12 11 12 11 10 11 12 12 12 12 15 16 17 15 13
19 12 11 11 8 5 2 3 4 6 10 12 12 13 12 12 13 17 19 20 22 21 20 18 17 13 14 11 10 10 13 13 12 11 12 14 14 13 14 14 14 14 13 14
11 10 8 5 1 2 4 6 8 10 12 12 12 14 15 16 16 21 21 19 25 23 21 23 17 16 17 13 13 16 17 18 18 17 17 16 15 14 15 15 15 15 14 13
7 5 3 2 4 6 8 10 12 14 15 15 15 17 17 17 16 19 19 18 24 23 21 20 22 22 20 17 17 18 18 18 21 20 20 20 19 18 17 13 14 13 15 14
4 5 6 7 8 11 12 12 12 16 17 18 17 13 10 15 19 18 18 22 27 20 21 22 23 23 24 24 21 22 23 23 24 21 21 20 22 20 16 16 15 14 14 14
6 7 8 11 13 14 14 15 18 16 16 16 15 7 10 16 17 16 17 19 22 24 24 25 26 28 25 24 25 24 25 25 26 24 24 23 22 21 18 17 16 15 15 13
6 9 11 13 13 14 14 18 16 15 13 13 9 12 13 16 19 15 18 21 21 23 24 25 26 24 24 25 26 25 26 28 28 28 25 24 24 22 19 18 17 16 15 14
11 13 13 15 16 17 19 20 17 15 10 10 13 14 13 16 17 23 21 22 20 22 23 23 24 24 24 23 25 29 27 28 30 31 30 25 24 23 21 19 17 16 15 13
17 19 20 20 21 22 22 18 16 13 12 16 17 15 14 16 17 19 18 17 18 19 21 22 22 24 24 23 24 26 29 30 30 31 29 27 23 23 20 18 15 14 13 12
21 23 23 22 24 24 22 16 12 16 18 18 17 18 15 16 17 10 10 14 19 19 19 20 24 24 25 26 27 26 25 25 29 32 29 26 20 19 18 16 12 12 13 13
Wind_Direction
84 35 46 235 170 314 217 194 161 260 160 91 104 124 123 119 107 89 54 34 20 6 339 327 336 332 319 315 301 308 313 312 309 321 316 300 274 269 287 286 286 272 270 291
21 17 22 302 311 264 196 208 166 119 106 140 92 80 83 82 65 40 16 4 345 319 323 332 328 332 342 1 7 360 347 329 318 319 316 304 265 287 283 287 278 233 277 307
261 0 353 350 206 214 118 52 225 190 158 137 130 137 130 102 91 39 314 289 301 305 322 336 350 8 7 358 349 344 339 2 353 347 328 297 301 287 303 297 275 310 319 243
212 15 24 239 289 164 121 58 111 109 127 142 171 154 152 160 136 283 283 308 319 330 346 4 10 4 354 344 339 342 359 12 5 349 326 303 295 304 31 324 285 296 216 191
135 196 302 295 203 158 166 218 174 148 152 159 170 145 208 214 226 249 273 318 332 358 357 3 358 349 344 350 9 10 9 356 349 337 324 299 277 263 308 276 271 173 134 22
141 137 217 234 193 119 83 281 178 153 170 185 153 138 246 254 286 318 332 352 12 359 13 357 355 349 342 348 347 348 350 347 345 334 322 297 287 299 308 283 175 149 38 14
145 212 287 241 234 107 104 239 160 167 174 174 186 181 195 274 312 355 51 28 38 17 3 355 351 352 353 334 311 323 336 344 347 342 343 332 321 312 66 69 164 70 10 14
108 91 279 193 89 170 201 137 149 159 175 180 161 177 198 272 71 51 34 38 11 4 357 352 355 348 345 334 306 307 325 341 354 348 333 319 314 304 293 187 92 11 3 2
183 211 230 206 215 67 123 134 162 160 169 158 165 210 112 96 64 43 47 14 6 357 346 344 344 343 336 335 318 304 325 348 344 337 329 326 23 103 146 159 23 10 341 348
102 242 204 143 76 91 112 131 152 147 154 163 169 119 101 96 52 55 17 6 352 346 341 334 340 344 338 333 323 302 323 329 341 331 334 82 34 5 135 41 15 4 352 345
250 353 64 327 174 148 127 123 130 154 156 178 127 116 115 85 73 23 5 353 346 338 329 328 336 338 341 334 328 327 321 319 330 332 345 15 21 79 26 16 360 353 346 338
229 201 171 199 166 149 138 163 168 161 147 112 120 119 106 98 35 8 355 345 336 329 322 328 333 329 326 326 327 331 309 316 335 352 55 30 11 1 349 350 348 344 334 331
214 112 87 117 130 140 162 179 192 145 126 119 98 108 90 40 1 348 341 335 327 322 321 327 332 327 324 324 329 323 314 301 349 359 349 331 325 321 328 334 342 345 343 341
123 111 65 175 177 179 163 154 116 109 111 114 119 89 30 1 337 334 331 328 324 325 320 327 329 319 317 322 319 315 326 322 323 320 332 323 322 320 315 319 329 339 344 341
160 90 147 149 145 154 131 124 106 106 119 106 61 18 345 332 327 323 328 330 327 325 325 326 320 317 316 321 312 319 322 322 313 287 342 318 311 310 314 311 323 322 326 326
148 122 128 131 114 108 108 103 114 121 86 37 344 331 319 318 318 323 333 337 332 323 321 319 316 321 324 325 314 318 318 324 309 323 320 316 313 311 312 306 304 314 319 323
131 113 106 96 97 99 97 107 106 84 346 304 313 321 315 321 323 329 333 330 321 317 310 313 314 313 309 301 299 305 304 307 302 307 307 307 308 306 308 297 298 308 305 307
87 84 79 112 125 114 93 72 15 303 284 304 316 310 307 309 312 319 327 325 320 315 311 314 309 313 302 279 287 294 301 305 295 293 306 308 304 301 296 301 302 295 295 300
96 118 116 102 94 85 31 326 309 304 305 309 305 294 293 287 298 321 320 320 318 307 306 308 313 304 297 288 285 288 284 288 292 288 297 300 301 298 302 300 300 307 297 295
108 89 75 81 60 327 305 308 302 297 301 302 298 289 290 301 299 314 317 307 308 305 308 310 306 293 305 291 285 290 282 276 282 286 287 282 290 295 299 302 303 300 295 291
77 57 32 334 301 299 287 290 289 288 299 300 293 292 300 309 315 321 305 307 312 324 317 315 312 289 285 287 278 276 278 275 273 282 282 286 282 282 290 293 302 304 305 287
41 356 333 316 298 294 299 296 291 294 297 299 298 298 301 317 317 309 300 297 313 312 313 310 314 313 294 280 275 278 274 270 272 278 280 277 281 280 276 286 286 291 300 292
330 315 307 298 291 292 297 294 300 299 296 298 300 274 299 304 304 306 307 314 316 315 308 307 308 311 305 292 276 278 279 275 274 274 276 276 278 279 270 280 278 287 291 298
314 307 300 303 298 290 284 296 300 301 301 291 254 292 305 309 313 313 309 316 324 325 321 315 313 310 302 298 284 281 278 273 271 273 274 274 271 273 265 274 276 284 287 289
317 312 307 302 297 289 296 297 299 299 283 258 292 307 301 309 305 314 314 320 325 328 319 312 312 310 302 294 290 286 285 281 278 277 273 267 268 269 260 267 271 280 283 283
316 308 305 302 296 298 297 297 286 287 279 283 294 303 307 315 312 310 318 328 333 332 327 321 320 318 308 301 298 288 284 282 280 277 271 262 261 266 258 260 265 279 277 280
331 330 325 321 321 311 298 278 267 273 290 286 289 304 308 313 316 324 329 335 333 338 343 332 327 322 317 312 305 295 287 287 282 277 268 258 255 260 256 250 263 276 275 276